Wind_Speed
13 13 13 13 13 13 13 13 14 14 14 14 14 14 14 13 14 14 13 13 13 13 13 13 13 12 12 12 12 12 11 11 11 11 11 11 11 12 12 12 12 13 13 14 14 15 15 16 16 16 16 17
14 14 13 13 14 14 14 14 15 15 15 14 15 15 14 13 14 13 13 13 12 12 13 13 13 12 12 11 11 11 11 11 11 11 11 11 11 11 11 12 12 12 13 13 13 14 15 16 16 16 15 16
16 15 14 14 15 15 14 15 17 16 15 15 15 15 14 13 13 13 13 12 12 13 13 13 13 12 11 11 11 11 11 10 10 11 11 11 11 12 12 12 12 13 13 13 14 14 15 16 16 15 15 16
17 16 16 16 17 17 16 17 18 18 17 15 15 15 14 13 12 13 14 14 14 14 13 13 13 12 11 10 10 10 10 10 11 11 11 11 12 12 13 13 14 14 14 14 15 15 15 16 16 16 15 16
19 19 18 19 18 17 18 18 17 17 16 15 15 14 14 13 13 14 15 14 14 14 14 13 12 12 11 10 10 10 10 11 11 11 11 11 12 12 13 14 15 15 15 15 16 16 16 16 16 16 16 16
21 21 20 19 18 18 17 17 17 17 16 15 15 15 15 15 15 15 15 15 14 14 14 13 13 12 11 11 10 10 10 11 11 11 12 12 12 12 13 14 14 15 16 16 17 16 16 16 16 14 15 17
21 21 20 19 18 18 18 18 18 18 17 17 18 18 15 14 16 17 17 16 15 14 13 13 12 12 11 11 11 11 11 11 12 12 12 12 12 12 13 13 13 14 15 15 16 16 16 17 16 12 11 15
20 20 20 19 20 20 20 21 21 21 20 21 21 18 15 15 18 18 17 16 15 14 13 13 13 12 12 12 12 12 13 12 13 13 12 13 12 12 13 13 13 13 13 13 14 14 15 16 16 14 9 10
21 21 20 21 22 22 23 23 23 23 23 23 22 18 16 18 19 17 17 17 16 15 14 14 14 13 13 12 13 13 13 13 12 12 13 13 13 13 13 13 12 13 12 12 13 13 13 13 13 14 11 6
22 22 22 23 23 24 24 24 24 24 24 24 23 20 18 18 18 18 18 18 16 15 15 14 13 13 13 13 12 12 12 12 11 11 12 13 13 13 13 13 13 13 13 12 13 13 13 12 11 13 12 6
23 23 22 23 24 24 25 25 24 24 24 24 24 21 19 20 20 19 19 17 15 15 14 12 11 12 12 12 11 10 11 12 11 10 11 12 12 12 13 13 13 13 13 13 13 13 13 13 11 12 13 8
24 24 22 23 24 24 25 25 24 23 23 24 24 21 20 21 20 18 18 17 16 15 13 12 12 12 12 12 12 11 12 12 11 11 12 12 10 10 11 12 12 11 12 12 12 13 13 12 12 12 13 11
25 24 23 24 25 24 24 25 24 23 22 24 24 22 21 20 17 16 16 17 17 15 14 14 14 13 13 13 13 13 12 12 12 12 12 11 11 9 9 10 10 10 10 10 10 11 12 11 10 11 12 12
26 25 24 25 26 24 24 25 24 23 23 24 24 24 24 20 16 15 16 17 16 15 16 17 15 14 14 14 14 14 13 13 12 12 13 12 11 9 9 10 9 8 9 10 9 10 11 8 8 9 10 11
26 26 26 26 27 25 25 25 23 24 24 24 24 25 25 22 18 15 16 17 16 16 17 17 16 15 15 15 14 14 14 14 14 14 14 12 11 10 9 11 10 7 5 7 8 9 10 8 7 7 9 10
27 26 27 26 27 27 26 25 24 25 24 23 23 24 25 24 20 16 16 17 16 16 17 17 15 14 15 15 15 15 15 15 15 14 13 13 13 12 10 10 12 9 6 6 6 7 8 7 7 7 7 8
27 26 27 26 27 27 26 26 25 25 24 23 23 23 25 25 22 18 17 18 17 16 16 15 15 14 14 15 16 16 16 16 15 14 13 14 14 13 11 10 11 9 7 7 6 6 7 5 6 8 7 6
27 26 26 26 27 26 26 27 26 25 24 24 22 23 25 24 23 20 19 20 20 17 16 16 16 16 15 16 17 17 17 16 15 14 14 14 13 12 10 9 10 8 7 7 5 6 7 4 4 7 8 6
28 27 26 27 26 25 26 27 25 25 24 23 23 23 24 24 24 21 18 20 22 19 17 18 17 17 17 18 18 18 17 15 13 14 14 12 11 11 10 11 12 10 9 9 7 6 6 5 5 5 7 8
27 26 26 27 26 24 26 27 25 25 24 23 23 23 24 26 25 22 19 20 22 20 17 17 18 17 18 19 19 19 18 15 13 15 14 12 12 12 12 12 11 10 9 9 8 8 8 7 6 5 5 6
27 26 25 26 26 24 26 27 25 25 24 23 23 22 23 26 26 24 22 21 22 20 17 16 16 17 18 20 20 18 18 17 14 15 15 16 15 12 12 12 11 10 9 8 7 7 8 8 8 8 7 5
27 26 25 25 26 24 25 26 25 25 24 23 23 21 21 25 26 25 24 23 23 21 19 17 16 17 19 20 20 17 19 18 13 15 16 16 16 14 12 11 11 11 9 8 7 7 7 7 8 9 10 8
27 25 24 24 25 24 24 26 25 24 24 23 23 22 21 23 25 26 25 24 24 23 20 19 17 18 19 21 21 18 19 17 14 16 16 14 15 16 15 11 10 10 10 9 7 8 9 8 7 9 11 12
28 26 25 25 26 25 24 26 25 24 24 23 24 23 22 23 24 26 26 25 26 24 21 20 19 18 19 21 21 19 19 18 16 18 17 15 14 15 15 14 11 11 11 9 7 8 10 9 10 11 13 15
31 29 28 27 27 27 25 26 26 24 24 23 24 24 23 24 24 25 26 26 26 25 23 21 20 19 19 21 21 20 19 18 15 17 18 16 14 14 14 14 14 13 11 8 8 9 11 13 14 14 15 17
33 32 31 29 28 27 25 26 27 26 25 24 24 24 25 25 25 25 25 26 26 26 25 22 20 20 20 21 21 20 19 17 15 15 17 16 15 14 14 14 13 13 11 7 9 9 7 10 14 17 18 18
32 31 29 28 26 25 25 25 27 27 26 25 24 25 26 26 26 26 26 26 26 26 26 24 21 20 20 21 21 21 19 19 18 16 16 17 16 13 13 14 13 13 13 10 8 6 3 4 6 9 15 19
30 28 27 25 24 23 23 23 24 25 25 25 25 25 26 27 27 26 26 26 26 26 26 26 23 21 20 21 22 22 21 20 20 19 19 19 18 15 12 13 14 14 16 15 10 4 2 3 2 3 8 16
28 26 26 24 22 22 21 21 23 25 25 26 27 27 27 27 27 27 27 27 27 28 27 27 25 23 21 21 21 22 23 22 22 21 21 21 21 19 16 14 13 13 17 19 16 10 5 2 2 3 3 6
28 27 27 27 25 24 23 22 25 27 27 27 28 28 28 28 28 28 28 29 29 29 29 28 28 26 24 23 22 23 23 23 22 22 23 22 22 22 21 19 16 14 16 18 21 20 16 10 6 4 3 1
28 27 27 28 28 27 26 24 24 25 26 27 27 27 27 28 28 29 29 29 30 30 30 30 30 30 29 27 26 25 25 25 25 24 24 24 23 23 23 23 23 21 18 17 19 23 23 22 18 15 10 5
Wind_Direction
164 160 159 159 157 155 154 150 148 144 141 140 139 137 131 128 125 120 120 120 119 117 120 125 125 123 119 117 115 112 109 106 104 101 98 95 92 88 86 83 82 81 81 83 85 87 89 91 92 91 91 91
164 162 161 157 158 159 156 157 158 151 147 144 144 145 138 133 128 123 123 118 117 121 128 134 133 130 128 125 122 118 114 110 105 101 97 93 91 87 86 84 83 83 83 85 87 89 90 90 90 89 88 89
166 162 160 160 168 170 165 170 171 162 155 149 149 150 144 141 136 132 131 126 130 136 139 140 137 133 132 128 124 120 114 110 104 100 96 92 91 88 87 87 86 86 87 88 90 92 92 92 89 87 85 85
167 166 171 178 185 185 182 183 181 174 168 163 162 160 155 154 150 147 146 147 150 149 147 143 139 136 133 130 125 120 115 110 105 102 99 97 97 96 95 92 90 89 89 90 91 92 94 94 90 85 83 81
178 180 186 192 192 193 192 191 189 184 181 177 172 167 161 158 154 154 155 158 158 154 152 147 143 140 136 134 128 123 118 113 109 107 105 105 106 106 103 99 96 93 91 90 89 91 93 94 92 87 83 80
191 192 194 197 196 196 195 192 191 188 187 180 171 164 159 158 157 157 158 160 161 160 158 153 151 147 142 137 131 127 122 118 115 114 113 113 113 112 106 102 99 96 91 89 88 89 90 91 94 92 83 78
196 195 196 197 196 195 191 187 185 184 182 175 169 162 158 163 165 164 164 164 163 161 158 154 152 147 145 139 134 129 125 123 120 119 119 116 115 112 107 101 97 93 90 89 89 88 89 92 97 100 85 76
194 191 193 193 192 191 186 183 181 180 177 174 172 163 164 176 176 172 169 165 160 159 156 152 148 144 144 141 139 135 130 129 127 126 121 115 113 111 110 107 100 95 91 93 95 91 89 92 100 108 102 78
186 184 188 190 190 188 185 184 182 180 179 179 175 168 179 188 180 174 166 161 157 155 155 151 148 147 146 145 146 141 136 135 132 129 124 118 114 113 112 110 109 107 103 103 104 102 96 95 100 109 114 98
184 184 187 190 189 187 187 187 185 184 185 183 178 176 188 186 175 170 165 163 159 157 157 154 153 153 151 150 150 147 144 138 130 127 125 122 120 118 114 110 109 109 109 106 105 107 107 105 104 108 115 117
187 187 189 190 188 187 188 188 187 188 190 186 182 185 187 178 171 170 171 171 167 167 167 163 165 164 160 157 153 155 152 143 138 139 133 124 121 120 118 112 107 104 103 102 102 103 106 109 110 113 116 120
190 188 189 190 187 188 189 188 189 190 191 188 188 190 182 176 176 176 181 180 173 171 172 173 175 173 172 166 160 162 157 145 146 148 137 129 124 119 117 113 107 103 100 100 102 102 102 104 106 113 118 121
191 188 189 190 188 188 190 190 189 189 191 191 192 189 179 177 181 182 186 184 176 174 181 183 179 178 178 172 166 165 159 150 152 150 142 139 136 129 123 116 107 104 102 101 102 102 100 98 101 107 115 120
190 188 190 193 191 189 193 193 190 190 192 194 193 187 181 179 182 185 190 187 182 183 190 186 179 181 180 173 170 167 163 157 157 154 147 142 135 134 134 127 115 104 103 102 101 106 106 103 104 108 119 124
189 190 192 195 193 191 196 192 190 195 196 195 192 190 187 181 178 186 195 191 188 192 193 186 181 184 182 176 174 174 172 165 164 162 154 149 143 141 140 135 131 121 110 107 102 106 113 119 120 117 124 129
189 192 193 197 194 193 197 190 191 199 196 193 192 197 195 185 178 183 196 193 192 197 192 186 184 185 185 181 178 178 175 168 167 166 160 158 153 146 144 143 139 140 147 133 118 113 114 122 131 132 128 127
190 193 195 198 194 196 197 189 195 199 194 193 194 201 201 192 182 181 193 193 191 195 190 187 187 186 189 188 183 179 175 169 162 158 156 156 151 145 147 146 137 140 153 142 134 134 126 122 131 137 139 138
192 194 197 198 194 197 196 192 199 197 192 195 195 203 203 195 189 186 193 195 189 188 189 193 193 189 190 192 188 180 173 165 158 159 158 153 148 145 152 155 146 151 160 150 150 144 135 145 148 141 151 164
193 194 195 196 193 195 196 195 200 196 194 196 196 205 205 198 196 191 193 201 193 186 192 197 193 191 193 194 187 176 170 164 168 172 161 156 156 153 165 167 159 162 166 161 165 157 149 175 180 157 163 175
193 193 194 194 192 195 198 198 198 195 196 197 199 209 208 201 199 192 193 203 197 188 194 198 193 194 198 196 184 177 177 171 180 182 167 171 173 167 175 168 159 166 168 165 168 167 169 190 195 184 188 184
192 193 193 194 191 195 199 198 196 195 197 199 200 208 210 205 201 196 197 201 196 191 192 196 197 199 201 196 184 185 186 172 179 190 178 180 176 174 183 175 171 176 174 175 179 177 175 187 192 195 216 212
191 191 191 193 193 196 200 198 197 197 198 200 200 204 209 208 205 201 203 203 196 193 193 192 197 204 206 198 187 191 189 173 180 195 183 181 180 178 185 185 183 180 185 195 191 194 197 199 193 195 218 225
190 189 190 191 192 196 200 198 197 197 198 199 199 200 205 209 209 206 207 207 200 195 195 193 195 207 212 202 192 192 189 179 187 195 185 186 190 184 182 189 194 189 196 212 210 207 210 215 213 206 217 228
189 188 188 188 190 193 197 197 196 197 199 200 200 200 203 208 212 210 209 210 204 198 197 197 198 206 213 206 198 193 191 190 194 198 191 188 197 196 188 188 196 201 201 215 233 229 223 222 222 217 219 228
190 188 187 187 189 191 192 194 195 197 199 200 201 202 204 209 214 213 211 210 207 203 200 202 203 208 212 208 203 199 196 196 198 205 201 193 198 206 205 198 197 204 203 213 235 240 238 233 229 227 224 227
193 192 191 190 190 191 192 195 197 197 199 201 202 205 208 211 214 213 211 211 211 208 205 204 207 211 214 211 207 205 202 199 200 209 212 205 202 207 215 213 207 208 205 213 230 227 236 244 238 233 227 227
196 196 196 194 192 192 193 197 200 201 201 202 203 206 209 212 215 213 212 214 214 212 210 208 208 212 218 218 213 210 208 205 204 207 215 214 210 210 220 223 221 219 215 220 236 229 224 244 235 231 229 229
199 198 199 198 197 196 197 199 202 203 204 205 205 206 209 211 215 215 213 215 216 215 214 213 211 213 219 223 222 219 217 215 212 210 214 218 213 208 214 224 226 227 226 226 232 234 222 223 213 235 224 226
199 197 196 196 196 196 197 198 198 199 202 204 206 207 209 211 213 216 216 217 219 219 218 217 217 216 218 225 228 227 226 225 225 221 221 224 223 217 214 219 224 229 230 229 231 231 227 228 228 241 216 219
199 195 193 192 192 191 192 194 195 197 199 202 205 208 210 212 215 217 218 219 221 223 223 223 223 222 221 224 228 231 232 231 230 230 231 232 233 231 228 226 227 229 231 232 237 238 238 243 242 256 298 352
202 198 196 196 197 196 196 198 199 200 202 204 206 210 212 214 217 219 219 220 221 224 226 228 229 230 228 226 228 232 234 233 231 231 234 236 237 238 237 232 229 231 230 228 233 237 241 246 249 257 271 266
Height
821 822 822 823 824 825 825 826 827 827 827 828 829 830 830 831 831 832 832 832 832 832 832 832 832 832 833 833 834 835 835 835 835 835 835 835 835 835 836 836 836 837 837 836 836 836 836 835 835 835 835 835
820 821 821 822 823 824 825 825 826 826 827 828 828 829 830 830 831 831 831 832 832 832 832 832 832 833 833 834 834 835 835 835 835 835 835 835 835 835 836 836 837 837 837 837 837 836 836 836 836 836 835 836
819 820 820 821 822 822 824 824 825 826 826 827 828 828 829 829 829 830 830 830 831 832 832 833 833 833 834 834 834 834 834 834 834 835 835 835 835 836 836 837 837 838 837 837 837 837 836 836 836 836 836 836
817 819 819 820 820 821 822 823 824 825 825 826 827 827 828 828 828 828 829 830 830 831 832 833 834 834 834 834 834 834 834 834 834 834 835 835 836 836 837 837 838 838 838 838 837 837 837 837 837 837 836 836
816 817 818 818 819 820 821 822 823 824 824 825 826 827 827 828 828 828 829 830 830 831 832 833 834 834 834 834 834 834 834 834 834 834 835 835 836 836 837 838 838 838 838 838 837 838 837 838 837 838 838 837
814 816 816 817 818 819 820 821 823 823 824 825 826 826 827 827 827 828 829 829 830 831 832 833 833 834 834 834 834 834 834 834 835 835 835 836 836 836 837 837 838 838 838 838 838 838 838 838 838 839 839 838
813 814 815 816 817 818 819 821 822 823 824 825 825 826 827 827 827 828 828 829 830 831 832 832 833 833 834 834 834 834 834 835 835 836 836 836 836 836 837 837 837 837 837 837 837 838 838 838 839 839 839 839
812 813 814 815 816 817 818 820 821 822 823 824 824 825 826 826 826 827 828 829 830 831 832 832 833 833 834 834 834 834 835 835 835 836 836 836 836 836 836 837 837 837 837 837 838 838 838 838 839 840 839 839
810 811 812 813 815 816 817 818 819 820 821 822 823 824 824 825 826 827 828 829 830 831 831 832 832 833 833 834 834 834 834 835 836 836 836 836 836 836 836 836 837 837 838 838 838 838 838 839 839 840 840 839
809 810 811 812 813 814 816 817 818 819 820 821 822 822 823 824 826 827 827 828 829 830 831 831 832 832 833 833 834 834 834 835 835 836 835 836 836 836 836 837 837 837 838 838 838 838 838 839 839 839 840 839
807 808 809 810 812 813 814 815 816 818 818 820 820 821 822 823 824 825 826 827 828 829 830 831 831 832 832 833 834 834 834 834 835 835 835 836 836 836 836 837 837 837 838 838 838 838 838 838 838 838 839 839
806 807 808 809 810 811 812 813 815 816 817 818 819 820 821 823 824 824 825 826 827 828 829 830 831 831 832 832 833 833 834 834 834 835 835 835 836 836 836 836 837 837 837 838 838 838 837 838 838 838 838 839
804 805 807 808 809 810 811 812 813 814 815 816 818 819 821 822 823 824 825 825 826 828 828 829 830 831 831 832 832 833 833 833 834 834 834 835 835 836 836 836 836 837 837 837 837 837 837 837 837 838 838 839
801 803 804 805 807 808 809 810 812 813 813 814 816 818 819 820 822 823 824 825 826 827 827 828 829 830 830 831 831 832 832 833 833 833 834 834 835 835 835 835 835 836 836 836 837 836 837 837 837 837 837 838
799 800 801 802 804 806 807 808 810 811 812 813 815 816 817 819 821 822 823 824 825 825 826 827 828 829 829 830 830 831 831 832 832 832 833 833 833 834 834 835 835 836 836 836 837 836 836 837 837 837 837 837
797 798 799 800 802 803 805 807 808 809 811 812 814 815 816 817 819 821 822 823 824 824 825 826 827 828 829 829 830 830 830 831 831 831 831 832 832 833 834 834 835 836 836 836 836 836 836 836 836 836 836 836
794 796 797 798 800 801 803 805 806 807 809 811 812 813 814 816 817 819 820 821 823 824 825 826 827 827 828 828 828 829 829 829 830 830 831 831 832 832 833 834 834 835 836 836 836 836 836 836 836 836 836 836
792 793 795 797 799 800 801 803 804 806 808 809 810 811 812 814 816 817 818 820 821 823 824 825 826 826 827 827 827 828 828 829 829 830 830 831 831 832 833 833 834 834 835 835 835 835 835 835 835 835 835 836
790 791 793 795 797 798 800 801 802 804 806 807 808 809 811 813 814 816 817 818 820 821 823 824 824 825 826 826 826 827 827 828 828 829 829 830 831 831 832 832 832 833 833 833 834 834 834 835 834 834 835 835
788 790 792 794 795 796 798 799 801 803 804 806 807 807 809 811 812 814 816 817 818 820 821 822 823 824 824 825 825 826 826 826 827 827 828 829 829 830 830 831 831 831 832 832 832 833 833 834 833 833 834 834
787 789 791 792 794 795 796 798 799 801 803 804 805 806 808 809 811 813 814 815 817 819 820 821 823 823 823 824 824 824 824 825 825 826 826 827 828 828 829 829 830 830 830 831 831 831 832 832 832 832 833 833
785 787 789 791 793 793 794 797 798 800 801 802 804 805 806 808 809 811 812 813 815 817 819 820 821 821 822 822 822 823 823 823 824 824 825 826 826 827 828 828 828 829 829 830 830 830 830 830 831 831 832 832
784 786 788 789 791 792 793 795 797 798 799 800 802 803 804 806 807 809 810 811 813 815 817 819 820 820 820 821 821 821 821 822 822 823 823 824 825 826 826 827 827 828 828 828 828 829 829 829 830 830 831 831
782 784 785 787 789 790 791 793 795 797 798 799 800 802 803 804 805 807 808 809 811 813 815 816 818 818 818 819 819 819 819 820 820 821 822 823 824 825 825 826 826 827 827 827 827 827 828 828 828 829 829 829
778 779 781 783 785 786 788 791 793 795 796 797 798 800 801 802 803 805 806 807 809 811 813 814 815 816 816 817 817 818 818 818 819 820 821 822 822 823 824 824 825 825 826 826 826 826 827 827 827 827 828 827
773 775 777 779 781 784 786 788 790 792 794 795 796 798 799 800 801 803 804 805 807 809 810 812 813 814 814 815 816 816 817 818 818 819 819 820 821 822 822 823 823 824 825 825 825 825 825 825 825 825 826 826
771 774 775 777 779 782 784 786 788 790 792 793 795 796 797 798 799 800 802 803 805 806 808 810 811 812 812 813 814 815 815 816 816 817 818 818 819 820 821 822 822 823 823 823 824 824 824 823 823 824 824 823
771 774 776 778 779 781 783 785 787 789 790 792 793 794 795 796 797 798 799 801 802 804 806 807 809 810 811 811 812 813 814 814 814 815 815 816 817 819 819 820 821 821 822 822 823 823 822 822 822 821 820 820
771 773 775 777 779 781 783 784 785 786 788 789 790 791 792 793 794 796 797 799 800 801 803 804 806 808 809 809 810 811 811 812 812 813 814 814 815 817 818 818 819 820 820 821 821 821 821 820 820 818 818 818
770 771 772 774 776 777 779 780 781 781 783 785 786 788 789 791 792 793 794 796 797 798 800 801 803 805 806 807 808 808 809 810 811 811 812 812 813 814 816 817 817 817 818 819 820 820 819 819 818 818 818 818
769 770 771 772 772 774 775 776 778 779 781 782 784 786 788 789 790 791 792 793 794 795 796 798 799 801 803 804 805 806 807 808 809 809 810 810 811 812 813 814 814 815 816 817 817 817 818 817 817 818 818 818